[TLELIST] Archives

 

[list_settings.list_name] Current TLEs

February 27th 2013 PDT

HST 1 20580U 90037B 13057.87689454 .00001255 00000-0 78034-4 0 1846 2 20580 028.4694 275.7962 0003059 256.4361 212.1638 15.03311253 53085 ISS (ZARYA) 1 25544U 98067A 13058.36562500 .00007539 00000-0 12828-3 0 3042 2 25544 051.6482 293.7626 0011210 317.5271 024.5746 15.52446281817646 CXO 1 25867U 99040B 13059.48443078 .00000226 00000-0 00000+0 0 8624 2 25867 074.7026 346.4331 8647224 277.8574 000.8091 00.37805491 10122 ____________________________________________________________________ These 2-Line ...Continue Reading

[list_settings.list_name] Current TLEs

February 26th 2013 PDT

HST 1 20580U 90037B 13056.86104031 .00001096 00000-0 66566-4 0 1836 2 20580 028.4716 282.4749 0003547 238.3162 121.7080 15.03310368 52922 ISS (ZARYA) 1 25544U 98067A 13057.29363519 .00037694 00000-0 60838-3 0 2972 2 25544 051.6477 299.0947 0011112 312.7039 154.3376 15.52451838817482 CXO 1 25867U 99040B 13059.48443078 .00000226 00000-0 00000+0 0 8624 2 25867 074.7026 346.4331 8647224 277.8574 000.8091 00.37805491 10122 ____________________________________________________________________ These 2-Line ...Continue Reading

[list_settings.list_name] Current TLEs

February 25th 2013 PDT

HST 1 20580U 90037B 13055.06853605 .00001194 00000-0 73642-4 0 1826 2 20580 028.4713 294.2174 0003757 220.0175 140.0136 15.03307077 52656 ISS (ZARYA) 1 25544U 98067A 13056.20580009 .00009618 00000-0 16167-3 0 2912 2 25544 051.6487 304.5035 0011129 309.5332 193.8748 15.52415953817312 CXO 1 25867U 99040B 13056.84042451 .00000330 00000-0 00000+0 0 8605 2 25867 074.6817 346.6136 8645532 277.8758 000.8937 00.37799391 10117 ____________________________________________________________________ These 2-Line ...Continue Reading

[list_settings.list_name] Current TLEs

February 24th 2013 PDT

HST 1 20580U 90037B 13055.06853605 .00001194 00000-0 73642-4 0 1826 2 20580 028.4713 294.2174 0003757 220.0175 140.0136 15.03307077 52656 ISS (ZARYA) 1 25544U 98067A 13055.46957176 .00011088 00000-0 18526-3 0 2850 2 25544 051.6496 308.1632 0011164 306.3240 039.8305 15.52405194817197 CXO 1 25867U 99040B 13056.83798809 .00000330 00000-0 00000+0 0 8610 2 25867 074.6820 346.6125 8645817 277.8732 000.5606 00.37798198 10111 ____________________________________________________________________ These 2-Line ...Continue Reading

[list_settings.list_name] Current TLEs

February 23rd 2013 PDT

HST 1 20580U 90037B 13053.87353235 .00001309 00000-0 81876-4 0 1812 2 20580 028.4713 302.0476 0003602 210.3397 149.6983 15.03304810 52473 ISS (ZARYA) 1 25544U 98067A 13054.50704861 .00020902 00000-0 34218-3 0 2799 2 25544 051.6489 312.9485 0011119 301.8564 061.5767 15.52393894817059 CXO 1 25867U 99040B 13056.84042451 .00000330 00000-0 00000+0 0 8605 2 25867 074.6817 346.6136 8645532 277.8758 000.8937 00.37799391 10117 ____________________________________________________________________ These 2-Line ...Continue Reading

[list_settings.list_name] Current TLEs

February 22nd 2013 PDT

HST 1 20580U 90037B 13052.14741195 .00001399 00000-0 88364-4 0 1804 2 20580 028.4710 313.3562 0003602 192.6782 167.3720 15.03301002 52219 ISS (ZARYA) 1 25544U 98067A 13053.36731661 .00014733 00000-0 24071-3 0 2713 2 25544 051.6498 318.6104 0012180 303.6379 166.0407 15.52718604816874 CXO 1 25867U 99040B 13054.19609926 .00000267 00000-0 00000+0 0 8594 2 25867 074.6592 346.7621 8647299 277.9154 000.8683 00.37797877 10104 ____________________________________________________________________ These 2-Line ...Continue Reading

[list_settings.list_name] Current TLEs

February 21st 2013 PDT

HST 1 20580U 90037B 13052.14741195 .00001399 00000-0 88364-4 0 1804 2 20580 028.4710 313.3562 0003602 192.6782 167.3720 15.03301002 52219 ISS (ZARYA) 1 25544U 98067A 13052.33582383 .00013723 00000-0 22505-3 0 2666 2 25544 051.6498 323.7407 0012138 300.3149 159.7722 15.52683366816717 CXO 1 25867U 99040B 13054.19609926 .00000267 00000-0 00000+0 0 8594 2 25867 074.6592 346.7621 8647299 277.9154 000.8683 00.37797877 10104 ____________________________________________________________________ These 2-Line ...Continue Reading

[list_settings.list_name] Current TLEs

February 20th 2013 PDT

HST 1 20580U 90037B 13050.88601302 .00001430 00000-0 90612-4 0 1791 2 20580 028.4707 321.6202 0003688 181.9802 178.0772 15.03297757 52022 ISS (ZARYA) 1 25544U 98067A 13051.25045412 .00013259 00000-0 21795-3 0 2599 2 25544 051.6497 329.1384 0012179 295.4323 213.8517 15.52651085816541 CXO 1 25867U 99040B 13051.55016583 .00000064 00000-0 00000+0 0 8586 2 25867 074.6284 346.9532 8650456 277.9325 000.6363 00.37799768 10096 ____________________________________________________________________ These 2-Line ...Continue Reading

[list_settings.list_name] Current TLEs

February 19th 2013 PDT

HST 1 20580U 90037B 13049.82378120 .00001486 00000-0 94657-4 0 1785 2 20580 028.4705 328.5803 0003640 171.4918 188.5746 15.03294991 51868 ISS (ZARYA) 1 25544U 98067A 13050.22132453 .00013031 00000-0 21457-3 0 2534 2 25544 051.6503 334.2549 0012147 291.4555 221.7112 15.52622561816385 CXO 1 25867U 99040B 13051.55016583 .00000064 00000-0 00000+0 0 8586 2 25867 074.6284 346.9532 8650456 277.9325 000.6363 00.37799768 10096 ____________________________________________________________________ These 2-Line ...Continue Reading

[list_settings.list_name] Current TLEs

February 18th 2013 PDT

HST 1 20580U 90037B 13047.16819091 .00001375 00000-0 86662-4 0 1769 2 20580 028.4705 345.9789 0003656 145.0959 214.9871 15.03288048 51468 ISS (ZARYA) 1 25544U 98067A 13047.26016378 .00011646 00000-0 19316-3 0 2318 2 25544 051.6500 348.9797 0012394 280.4426 230.9597 15.52539242815929 CXO 1 25867U 99040B 13048.90605499 -.00000186 00000-0 00000+0 0 8565 2 25867 074.6064 347.1480 8651599 277.9456 000.6537 00.37800146 10086 ____________________________________________________________________ These 2-Line ...Continue Reading
  • This mailing list is a public mailing list - anyone may join or leave, at any time.
  • This mailing list is announce-only.

International Space Station (ISS) / Hubble Space Telescope (HST) / Chandra X-Ray Observatory Orbital Data via EMAIL

Privacy Policy:

Private list